Regional Weather Roundup
Issued by NWS

Home | Current Version | Previous Version | Text Only | Print | Product List | Glossary On
Versions: 1 2 3 4 5 6 7 8 9 10 11 12 13 14 15 16 17 18 19 20 21 22 23 24 25 26 27
000
ASUS44 KLIX 281913
RWRLA
LOUISIANA WEATHER ROUNDUP
NATIONAL WEATHER SERVICE NEW ORLEANS LA
200 PM CDT SUN MAY 28 2017

NOTE: "FAIR" INDICATES FEW OR NO CLOUDS BELOW 12,000 FEET WITH NO
      SIGNIFICANT WEATHER AND/OR OBSTRUCTIONS TO VISIBILITY.
      SKY/WX - SKY CONDITION AND SIGNIFICANT WEATHER.
      TMP - AIR TEMPERATURE.    DP   - DEWPOINT TEMPERATURE.
      RH  - RELATIVE HUMIDITY.  PRES - PRESSURE.
      HX  - HEAT INDEX.         WCI  - WIND CHILL INDEX.

*  THESE STATIONS ARE NOT NWS OR FAA STATIONS AND ARE NOT UNDER
   NWS QUALITY CONTROL.

LAZ040-048-061>063-065-066-069-282000-
SOUTHEAST LOUISIANA

CITY           SKY/WX    TMP DP  RH WIND       PRES   REMARKS
N.O. INTL ARPT PTSUNNY   88  72  58 S8        30.01F
N.O. LAKEFRONT PTSUNNY   88  73  61 N9        30.02F HX  95
N.O. DOWNTOWN*   N/A     91  72  53 SE9         N/A  HX  98
RESERVE*       FAIR      92  72  52 S5        30.01F HX 100
SLIDELL        CLOUDY    77  67  71 N13       30.06R
BATON ROUGE    CLOUDY    76  70  82 E10       30.00F
BOOTHVILLE     SUNNY     87  72  60 CALM      30.04F
BELLE CHASSE   PTSUNNY   90  75  61 S10G20    30.02F HX 100
BOGALUSA*      FAIR      79  67  65 E7        30.05F
GALLIANO*      PTCLDY    87  70  56 S6        30.03F
NEW ROADS*     FAIR      76  69  78 E12G20    30.00F
GONZALES*      CLOUDY    80  67  63 NE8       30.01S
HAMMOND*       LGT RAIN  77  68  73 E7        30.04F
HOUMA*         MOSUNNY   90  73  58 SE6       30.02F HAZE    HX  98
PORT FOURCHON* CLEAR     86  72  62 SE7       30.03F

$$

LAZ041-044-053-054-282000-
SOUTHWEST LOUISIANA

CITY           SKY/WX    TMP DP  RH WIND       PRES   REMARKS
LAKE CHARLES   RAIN      78  74  87 S7        29.98F FOG
LAFAYETTE      LGT RAIN  77  72  84 N8        30.02R
PATTERSON      MOSUNNY   87  75  67 SE8       30.01F HX  96
SALT POINT       N/A     84  75  74 SE9       30.00F
NEW IBERIA     MOSUNNY   91  73  55 S14       29.99F HX  99
CHENAULT AIRPK PTSUNNY   77  75  94 SE8G22    29.98S

$$

LAZ027-028-282000-
CENTRAL LOUISIANA

CITY           SKY/WX    TMP DP  RH WIND       PRES   REMARKS
FORT POLK      PTSUNNY   81  67  62 E8        29.98F
ALEXANDRIA INT CLOUDY    79  66  64 E12       29.97F
ALEXANDRIA     CLOUDY    79  69  71 SE8       29.99F

$$

LAZ001-002-282000-
NORTHWEST LOUISIANA

CITY           SKY/WX    TMP DP  RH WIND       PRES   REMARKS
SHREVEPORT     PTSUNNY   85  71  63 S12       29.94F
BARKSDALE AFB  MOSUNNY   84  70  63 S10       29.94F
DTN SHREVEPORT PTSUNNY   83  70  64 S9        29.94F

$$

LAZ014-016-282000-
NORTHEAST LOUISIANA

CITY           SKY/WX    TMP DP  RH WIND       PRES   REMARKS
MONROE         CLOUDY    75  68  78 VRB3      29.96S
TALLULAH       LGT RAIN  73  69  87 VRB3      29.94S

$$





USA.gov is the U.S. government's official web portal to all federal, state and local government web resources and services.